This is the latest recevied weather packets stored in our database for station/object DJ4RO-13. If no packets are shown the sender has not sent any weather packets the latest 10 day(s).
| Time | Temp. | Humidity | Pressure | Rain* | Wind** | Luminosity | Snow |
|---|---|---|---|---|---|---|---|
| 1777212957 | 15° C | 30% | 1029.9 hPa | 0 mm | - | 354 W/m² | - |
| 1777212638 | 14.44° C | 31% | 1029.8 hPa | 0 mm | - | 366 W/m² | - |
| 1777212317 | 14.44° C | 31% | 1029.7 hPa | 0 mm | - | 376 W/m² | - |
| 1777211997 | 14.44° C | 31% | 1029.7 hPa | 0 mm | - | 385 W/m² | - |
| 1777211677 | 14.44° C | 31% | 1029.9 hPa | 0 mm | - | 397 W/m² | - |
| 1777211357 | 15° C | 30% | 1029.7 hPa | 0 mm | - | 406 W/m² | - |
| 1777211037 | 15° C | 31% | 1029.8 hPa | 0 mm | - | 414 W/m² | - |
| 1777210717 | 15.56° C | 29% | 1029.7 hPa | 0 mm | - | 425 W/m² | - |
| 1777210397 | 15° C | 29% | 1030.2 hPa | 0 mm | - | 434 W/m² | - |
| 1777210077 | 15° C | 29% | 1029.6 hPa | 0 mm | - | 442 W/m² | - |
| 1777209752 | 15.56° C | 29% | 1029.9 hPa | 0 mm | - | 451 W/m² | - |
| 1777209437 | 14.44° C | 29% | 1030 hPa | 0 mm | - | 463 W/m² | - |
| 1777209117 | 14.44° C | 30% | 1029.9 hPa | 0 mm | - | 474 W/m² | - |
| 1777208797 | 14.44° C | 30% | 1029.9 hPa | 0 mm | - | 477 W/m² | - |
| 1777208492 | 14.44° C | 30% | 1030 hPa | 0 mm | - | 486 W/m² | - |
| 1777208192 | 13.89° C | 29% | 1030.1 hPa | 0 mm | - | 497 W/m² | - |
| 1777207833 | 14.44° C | 28% | 1030.5 hPa | 0 mm | - | 501 W/m² | - |
| 1777207472 | 14.44° C | 29% | 1030.3 hPa | 0 mm | - | 510 W/m² | - |
| 1777207172 | 14.44° C | 30% | 1030.2 hPa | 0 mm | - | 514 W/m² | - |
| 1777206813 | 14.44° C | 29% | 1030.3 hPa | 0 mm | - | 516 W/m² | - |
| 1777206452 | 14.44° C | 27% | 1030.1 hPa | 0 mm | - | 522 W/m² | - |
| 1777206092 | 13.89° C | 27% | 1030.3 hPa | 0 mm | - | 532 W/m² | - |
| 1777205789 | 13.89° C | 30% | 1030.5 hPa | 0 mm | - | 531 W/m² | - |
| 1777205453 | 13.89° C | 30% | 1030.3 hPa | 0 mm | - | 542 W/m² | - |
| 1777205133 | 14.44° C | 31% | 1030.3 hPa | 0 mm | - | 548 W/m² | - |
* Rain latest hour (hover to see other rain measurements)
** Current wind speed in m/s (hover to see current wind gust speed)